Regional Weather Roundup
Issued by NWS Grand Forks, ND

Home | Current Version | Previous Version | Graphics & Text | Print | Product List | Glossary On
Versions: 1 2 3 4 5 6 7 8 9 10 11 12 13 14 15 16 17 18 19 20 21 22 23 24 25 26 27 28 29 30 31 32 33 34 35 36 37 38 39 40 41 42 43 44 45 46 47 48 49 50
000
ASUS43 KFGF 271010
RWRFGF
PRAIRIE TO PINES  WEATHER ROUNDUP
NATIONAL WEATHER SERVICE EASTERN NORTH DAKOTA/GRAND FORKS ND
500 AM CDT THU JUL 27 2017

 **SATELLITE DATA USED TO AUGMENT SKY COVER AT AUTOMATED STATIONS**
 *****  WEATHER ACROSS EASTERN NORTH DAKOTA  *****

CITY           SKY/WX    TMP DP  RH WIND       PRES   REMARKS
GRAND FORKS    FAIR      59  57  93 CALM      30.10S
GRAND FRKS AFB FAIR      53  53  99 CALM      30.10F
DEVILS LAKE    FAIR      59  58  96 CALM      30.14S FOG
FARGO          FAIR      59  58  96 CALM      30.11S
WAHPETON ARPT  FAIR      55  54  94 CALM      30.11S
$$

 ***** WEATHER ACROSS CENTRAL AND WESTERN NORTH DAKOTA  *****

CITY           SKY/WX    TMP DP  RH WIND       PRES   REMARKS
BISMARCK       CLOUDY    64  58  80 E7        30.14S
MINOT          CLOUDY    70  58  65 S13       30.13R
JAMESTOWN      FAIR      55  54  96 CALM      30.14R FOG
MINOT AFB      MOCLDY    63  58  84 CALM      30.12R
GARRISON         N/A     62  61  96 W8        30.21R
WILLISTON      FAIR      68  58  70 NE7       30.06F
DICKINSON      FAIR      63  54  72 SE12      30.08F
HETTINGER      FAIR      64  52  64 SE8       30.13F
$$

 *****  OTHER AIRPORT OBSERVATIONS IN OUR AREA  *****

CITY           SKY/WX    TMP DP  RH WIND       PRES   REMARKS
WALHALLA       NOT AVBL
GRAFTON AIRPOR FAIR      57  57 100 W5        30.12S
VALLEY CITY AR FAIR      57  57 100 NW3       30.15R
CANDO          NOT AVBL
CAVALIER APRT  FAIR      59  55  88 CALM      30.09S
GWINNER        SUNNY     55  55 100 CALM      30.12F
SHEYENNE NWR     N/A     54  54 100 CALM      29.95S
ROLLA            N/A     54  54 100 SW7       30.15S
 ***** THE ABOVE OBSERVATIONS ARE NON NWS ARE NOT QUALITY
       CONTROLLED AND MAY MIS-REPORT RAIN FOR SNOW...
$$

  *****  WEATHER ACROSS NORTHERN MINNESOTA  *****

CITY           SKY/WX    TMP DP  RH WIND       PRES   REMARKS
FLAG ISLAND    FAIR      64  61  88 NW3       30.08S
WARROAD        FAIR      57  54  88 SW3       30.11R
ROSEAU         FAIR      63  57  82 W8        30.10S
HALLOCK        FAIR      54  54 100 SE5       30.09F FOG
THF RVR FALLS  FAIR      59  56  89 NW5       30.12S
BAUDETTE       FAIR      57  57 100 W3        30.09S FOG
WASKISH        FAIR      59  55  88 CALM      30.10S
CROOKSTON      FAIR      57  55  94 CALM      30.11S
STEPHEN NDAWN    N/A     54  52  94 SE2         N/A
GREENBUSH NDAW   N/A     57  55  94 SW2         N/A
$$
  *****  WEATHER ACROSS CENTRAL AND WEST MINNESOTA  *****

CITY           SKY/WX    TMP DP  RH WIND       PRES   REMARKS
FOSSTON        MOCLDY    54  52  94 CALM      30.13S FOG
BEMIDJI        FAIR      55  55  97 NW5       30.12S
PARK RAPIDS    FAIR      58  54  86 N3        30.11S
ELBOW LAKE     FOG       64  62  95 CALM      30.12S VSB 1/2
WADENA         FAIR      57  57 100 N3        30.11S
DETROIT LAKES  FAIR      63  59  88 CALM      30.14R
MOORHEAD       FAIR      57  55  94 CALM      30.12S
FERGUS FALLS   FAIR      63  63 100 CALM      30.11S
MORRIS MN      FAIR      61  59  94 NW3       30.10S
STAPLES        FAIR      57  57 100 CALM      30.11S
$$
  *****  WEATHER ELSEWHERE ACROSS MINNESOTA  *****

CITY           SKY/WX    TMP DP  RH WIND       PRES   REMARKS
DULUTH         FAIR      60  59  96 CALM      30.08R
INTRNTL FALLS  FOG       50  48  93 CALM      30.08S VSB 1/4
ELY            FAIR      52  52 100 CALM      30.08S
CLOQUET        FAIR      57  55  94 NW6       30.08S
WHEATON        FAIR      61  57  88 CALM      30.12F
BRAINERD       FAIR      57  56  96 CALM      30.10R
HIBBING        FAIR      51  51 100 CALM      30.09S
ALEXANDRIA     FAIR      63  60  90 N5        30.13R
SAINT CLOUD    FAIR      62  61  96 NW3       30.08S
MINNEAPOLIS    FAIR      68  60  75 N8        30.05R
$$

  *****  WEATHER ACROSS SOUTH DAKOTA  *****

CITY           SKY/WX    TMP DP  RH WIND       PRES   REMARKS
SIOUX FALLS    FAIR      60  59  96 CALM      30.10S
BROOKINGS      FAIR      60  59  96 CALM      30.12S
WATERTOWN      FAIR      57  56  96 N6        30.12F
HURON          FAIR      58  58 100 N3        30.11S
SISSETON         N/A     58  56  93 W5        30.11S
ABERDEEN       FAIR      58  57  97 N3        30.13R
MITCHELL       FAIR      62  61  96 CALM      30.11S
PIERRE         FAIR      59  54  83 NE3       30.11F
MOBRIDGE       FAIR      62  58  86 E8        30.11S
RAPID CITY     CLOUDY    65  55  70 S5        30.15F
$$

  *****  SOME WEATHER IN NEARBY STATES *****

CITY           SKY/WX    TMP DP  RH WIND       PRES   REMARKS
GLASGOW MT     FAIR      71  48  43 E20       29.97F
GREAT FALLS MT FAIR      68  43  40 SW10      30.02S
CHEYENNE WY    FAIR      60  57  89 SE5       30.28S
SCOTTSBLUFF NE CLOUDY    69  64  84 SE6       30.19S
OMAHA NE       FAIR      69  66  90 N7        30.02R
DES MOINES IA  FAIR      71  69  93 N7        29.97S
DAVENPORT IA   CLOUDY    70  69  97 N7        29.95S
CHICAGO IL     MOCLDY    73  70  90 NW3       29.93R
EAU CLAIRE WI  FOG       59  59 100 CALM      30.02S VSB 1/2
LA CROSSE WI   FAIR      68  66  93 NW7       29.99R
$$

  *****  SOME NATIONAL WEATHER *****

CITY           SKY/WX    TMP DP  RH WIND       PRES   REMARKS
LA GUARDIA NY  MOCLDY    67  61  81 SW7       30.06R
RALEIGH NC     MOCLDY    72  67  84 SW6       30.09R
ATLANTA GA     MOCLDY    73  69  87 SE6       30.09R
NEW ORLEANS LA FAIR      76  75  97 W7        30.03S
OKLAHOMA CITY  MOCLDY    78  68  71 CALM      29.99R
ALBUQUERQUE NM CLOUDY    77  56  48 N5        30.17S
SALT LAKE CITY FAIR      69  58  67 SE3       30.16S
LOS ANGELES CA FAIR      67  63  87 NW5       29.96F
BOISE ID       FAIR      69  53  56 CALM      30.08R
SEATTLE WA     MOCLDY    58  55  90 SW5       30.10R
$$

*** WEATHER ACROSS MANITOBA...SASKATCHEWAN AND ONTARIO ***
                ***ONTARIO***

CITY           SKY/WX    TMP DP  RH WIND       PRES   REMARKS
GERALDTON      MOCLDY    52  50  93 CALM      30.06R
THUNDER BAY    PTCLDY    55  55 100 W2        30.05R
SIOUX LOOKOUT  CLEAR     52  52 100 VRB2      30.07R
TORONTO        LGT RAIN  66  64  94 NW7       29.96R
BIG TROUT LK   CLEAR     50  50 100 N5        30.06
PICKLE LAKE    NOT AVBL
DRYDEN         CLEAR     59  59 100 CALM      30.08R
KENORA         PTCLDY    63  59  88 N6        30.09S
$$
                *** MANITOBA***

CITY           SKY/WX    TMP DP  RH WIND       PRES   REMARKS
BRANDON        CLEAR     54  52  94 NW2       30.12R
DAUPHIN        CLEAR     59  57  94 W9        30.09R
ISLAND LAKE    NOT AVBL
PILOT MOUND      N/A     55  54  94 S3          N/A
THE PAS        PTCLDY    61  55  82 S3        30.04R
THOMPSON       CLOUDY    61  61 100 CALM      29.99S
WINNIPEG       CLEAR     57  55  94 W3        30.08S
LYNN LAKE      CLEAR     59  57  94 S6        29.97S
CHURCHILL      MOCLDY    59  54  82 NE9       29.93R
GILLAM         MOCLDY    61  55  82 W2        30.00R
$$
                ***SASKATCHEWAN***

CITY           SKY/WX    TMP DP  RH WIND       PRES   REMARKS
ESTEVAN        PTCLDY    55  54  94 SW6       30.10F
KINDERSLEY     PTCLDY    61  48  63 SE10      29.99F
LLOYDMINSTER   CLEAR     54  52  94 E6        29.98F
PRINCE ALBERT  FOG       52  50  93 E5        30.04F VSB 1/2
REGINA         CLEAR     57  52  82 SE10      30.07S
YORKTON        CLEAR     59  55  88 S5        30.10R
N. BATTLEFORD  CLEAR     55  52  88 E8        30.02S
LA RONGE       PTCLDY    61  55  82 S6        30.00S
SASKATOON      CLEAR     57  54  88 SE5       30.02F
SWIFT CURRENT  CLEAR     63  48  59 S12       30.01F
$$
NOTE: THESE ARE AUTOMATED STATIONS WITH LIMITED QUALITY CONTROL
      "FAIR" INDICATES FEW OR NO CLOUDS BELOW 12,000 FEET WITH NO
      SIGNIFICANT WEATHER AND/OR OBSTRUCTIONS TO VISIBILITY.
      SKY/WX - SKY CONDITION AND SIGNIFICANT WEATHER.
      TMP - AIR TEMPERATURE.    DP   - DEWPOINT TEMPERATURE.
      RH  - RELATIVE HUMIDITY.  PRES - PRESSURE.
      HX  - HEAT INDEX.         WCI  - WIND CHILL INDEX.
$




USA.gov is the U.S. government's official web portal to all federal, state and local government web resources and services.